[[{"header":{"parameterUnit":"m.s-1","parameterCategory":1,"la1":30.2991,"la2":30.254,"lo1":-89.0895,"lo2":-89.0444,"dy":0.0017,"dx":0.0017,"nx":28,"ny":28,"refTime":"2024-08-07T09:00:00:Z","depth":0,"parameterNumber":2,"parameterNumberName":"U-component_of_WINDS"},"data":[0,0,0,0,0,0,0,0,0,0,0,0,0,0,0,0,0,0,0,0,0,0,0,0,0,0,0,0,0,0,0,0,0,0,0,0,0,0,0,0,0,0,0,0,0,0,0,0,0,0,0,0,0,0,0,0,0,0,2.7799,2.78,0,2.7872,2.7873,2.7874,2.7837,2.7835,2.7833,2.7831,2.7906,2.791,2.7913,0,0,0,0,0,0,0,0,0,0,0,0,0,2.763,2.7633,2.7799,2.78,2.7801,2.7872,2.7873,2.7874,2.7837,2.7835,2.7832,2.783,2.7905,2.7909,2.7914,0,0,0,0,0,0,0,0,0,0,0,0,0,2.7703,2.7634,2.7799,2.7791,2.7791,2.7872,2.7873,2.7874,2.7837,2.7834,2.7832,2.7829,2.7903,2.7909,2.7914,2.8007,0,0,2.7932,2.7934,0,0,0,0,0,0,0,0,2.7699,2.7709,2.7791,2.7792,2.7792,2.7842,2.784,2.7919,2.7838,2.782,2.7831,2.7827,2.7887,2.7894,2.7914,2.801,2.8014,2.7932,2.7936,2.7938,2.794,0,0,0,0,0,0,0,2.7694,2.7706,2.7828,2.7793,2.7793,2.7784,2.7792,2.7855,2.7869,2.7821,2.7819,2.7828,2.7887,2.7908,2.7915,2.8015,2.7932,2.7937,2.7941,2.7943,2.8193,2.8196,0,0,0,0,0,0,2.7689,2.7702,2.7826,2.783,2.7737,2.779,2.7798,2.7829,2.7868,2.7871,2.783,2.7826,2.79,2.7909,2.7918,2.803,2.7938,2.7943,2.7947,2.819,2.8193,2.8197,0,0,0,0,0,0,2.7685,2.77,2.7823,2.7765,2.778,2.7796,2.7831,2.7832,2.7854,2.7875,2.7877,2.785,2.7898,2.791,2.7985,2.8032,2.7946,2.7951,2.8186,2.8191,2.8195,2.8254,0,0,0,0,0,0,2.7681,2.7699,2.7734,2.7766,2.7783,2.7889,2.7834,2.7835,2.7863,2.7858,2.7894,2.7897,2.7897,2.7977,2.7991,2.8038,2.7955,2.8182,2.8188,2.8194,2.8248,2.826,2.827,0,0,0,0,0,2.7675,2.7747,2.7736,2.7751,2.7827,2.7891,2.7901,2.79,2.7867,2.7903,2.7917,2.7896,2.8025,2.7985,2.8001,2.805,2.8179,2.8186,2.8193,2.8243,2.8258,2.827,0,0,0,0,0,0,2.772,2.7751,2.7739,2.7824,2.7856,2.7885,2.7929,2.7915,2.7956,2.795,2.7946,2.7955,2.8033,2.8049,2.8005,2.8143,2.8097,2.8107,2.8129,2.8143,2.8155,2.8149,2.796,0,0,0,0,0,2.774,2.7789,2.7814,2.7887,2.7903,2.7914,2.7942,2.7938,2.797,2.7983,2.8002,2.8034,2.8082,2.8114,2.8159,2.825,2.8258,2.8292,2.8303,2.8312,2.8322,2.8372,2.8388,2.8221,2.8221,2.8221,0,0,2.7781,2.7805,2.7836,2.7897,2.792,2.7972,2.7925,2.7981,2.8019,2.7991,2.8064,2.808,2.8116,2.82,2.8238,2.8215,2.837,2.8322,2.8329,2.8333,2.8381,2.8397,2.8411,2.8226,2.8225,2.8224,0,0,2.7883,2.7906,2.7969,2.7994,2.8031,2.8038,2.8053,2.8086,2.8095,2.8168,2.8148,2.8194,2.8276,2.8303,2.8327,2.8442,2.8424,2.8457,2.8516,2.8565,2.8579,2.859,2.8632,2.8646,2.8466,2.8466,2.8466,0,2.793,2.8007,2.8004,2.8062,2.809,2.8067,2.8132,2.8157,2.8206,2.8226,2.8201,2.8304,2.8327,2.8418,2.8446,2.8466,2.8484,2.8452,2.8577,2.8589,2.8599,2.8639,2.8654,2.847,2.8469,2.8469,2.8469,0,2.8063,2.8116,2.8164,2.8212,2.8245,2.8307,2.8314,2.8348,2.8342,2.8352,2.8427,2.8454,2.8505,2.8526,2.852,2.8617,2.8602,2.8577,2.8531,2.8619,2.8656,2.8671,2.8475,2.8474,2.8473,2.8472,0,0,2.8194,2.8242,2.8259,2.8282,2.8321,2.8363,2.8424,2.8473,2.8503,2.8539,2.859,2.8661,2.8639,2.8666,2.8664,2.8707,2.8797,2.8677,2.8678,2.8699,2.8906,2.8924,2.8942,2.8786,2.8789,2.8791,2.8903,0,2.8299,2.8405,2.8405,2.8503,2.8553,2.8534,2.8587,2.8618,2.8629,2.8674,2.8686,2.8737,2.8703,2.872,2.8762,2.8777,2.8839,2.8769,2.8835,2.8837,2.8826,2.8961,2.898,2.9084,2.8917,2.892,2.8922,0,2.8435,2.8476,2.8579,2.8612,2.8633,2.8681,2.8727,2.877,2.8805,2.881,2.8842,2.8834,2.8897,2.8849,2.8937,2.8889,2.8916,2.8928,2.8932,2.8938,2.8884,2.8971,2.9117,2.9133,2.8944,2.8943,2.8941,0,2.8521,2.8601,2.8674,2.8694,2.8734,2.8769,2.8787,2.8819,2.885,2.8891,2.891,2.8958,2.8984,2.9022,2.9027,2.8992,2.9115,2.9068,2.9122,2.9122,2.9148,2.9146,2.9301,2.9166,2.9165,2.9165,2.9165,0,2.8638,2.8702,2.8713,2.8758,2.8829,2.8829,2.89,2.8916,2.8945,2.8993,2.8979,2.9025,2.9029,2.9076,2.908,2.9152,2.9164,2.9171,2.9171,2.9172,2.9171,2.9189,2.9182,2.9169,2.9168,2.9168,2.9167,0,2.8746,2.8756,2.8833,2.8866,2.8876,2.8927,2.8956,2.8999,2.9009,2.907,2.9085,2.9102,2.9157,2.9165,2.923,2.9233,2.9319,2.9312,2.9307,2.9306,2.936,2.9355,2.9532,2.9555,2.9405,2.9406,2.9407,0,2.882,2.8869,2.8907,2.8938,2.8959,2.9009,2.904,2.9043,2.9076,2.912,2.9158,2.9212,2.9254,2.9343,2.9362,2.9411,2.9405,2.9464,2.9412,2.9412,2.9407,2.9404,2.9409,2.9474,2.9475,2.9477,2.9478,0,2.895,2.8953,2.8998,2.9046,2.9083,2.9121,2.9157,2.9183,2.9191,2.9229,2.9285,2.9318,2.9384,2.9438,2.9488,2.9507,2.9495,2.9494,2.9509,2.951,2.9506,2.9509,2.9334,2.949,2.9488,2.9488,2.9487,2.9486,2.9043,2.9086,2.912,2.9172,2.9199,2.9233,2.9275,2.9292,2.9338,2.9392,2.9391,2.9453,2.9488,2.9553,2.9577,2.9626,2.9607,2.9629,2.9634,2.9639,2.9645,2.9498,2.9635,2.9634,2.9634,2.9634,2.9634,0,2.9173,2.9194,2.9242,2.9292,2.9333,2.9317,2.9356,2.9392,2.9446,2.948,2.9523,2.9588,2.964,2.9663,2.9715,2.975,2.9745,2.9763,2.9761,2.9766,2.9659,2.964,2.9766,2.9766,2.9766,2.9766,2.9766,2.9766,2.9245,2.9317,2.9325,2.9411,2.9432,2.9492,2.9516,2.9547,2.9574,2.9648,2.9691,2.9706,2.9736,2.979,2.9838,2.9843,2.9863,2.9884,2.9887,2.9786,2.9773,2.976,2.9743,2.9888,2.9889,2.999,2.9991,2.9992]},{"header":{"parameterUnit":"m.s-1","parameterCategory":1,"la1":30.2991,"la2":30.254,"lo1":-89.0895,"lo2":-89.0444,"dy":0.0017,"dx":0.0017,"nx":28,"ny":28,"refTime":"2024-08-07T09:00:00:Z","depth":0,"parameterNumber":3,"parameterNumberName":"V-component_of_WINDS"},"data":[0,0,0,0,0,0,0,0,0,0,0,0,0,0,0,0,0,0,0,0,0,0,0,0,0,0,0,0,0,0,0,0,0,0,0,0,0,0,0,0,0,0,0,0,0,0,0,0,0,0,0,0,0,0,0,0,0,0,-2.8056,-2.8057,0,-2.82,-2.8202,-2.8203,-2.821,-2.8209,-2.8207,-2.8205,-2.8353,-2.8358,-2.8363,0,0,0,0,0,0,0,0,0,0,0,0,0,-2.7786,-2.7791,-2.8056,-2.8057,-2.8059,-2.82,-2.8202,-2.8204,-2.8211,-2.8208,-2.8206,-2.8205,-2.8351,-2.8357,-2.8364,0,0,0,0,0,0,0,0,0,0,0,0,0,-2.7914,-2.7793,-2.8055,-2.808,-2.8083,-2.8199,-2.8202,-2.8204,-2.8211,-2.8208,-2.8206,-2.8204,-2.8349,-2.8357,-2.8365,-2.8466,0,0,-2.839,-2.8394,0,0,0,0,0,0,0,0,-2.7907,-2.7924,-2.8074,-2.8078,-2.8082,-2.8185,-2.8161,-2.8292,-2.8212,-2.8162,-2.8205,-2.8202,-2.8299,-2.8311,-2.8344,-2.8473,-2.848,-2.8391,-2.8396,-2.8399,-2.8402,0,0,0,0,0,0,0,-2.7898,-2.7918,-2.8113,-2.8076,-2.8081,-2.8083,-2.8099,-2.8186,-2.8243,-2.8167,-2.8167,-2.8184,-2.83,-2.8336,-2.8347,-2.8482,-2.8391,-2.8398,-2.8403,-2.8406,-2.8703,-2.8706,0,0,0,0,0,0,-2.7884,-2.791,-2.8108,-2.8117,-2.7987,-2.809,-2.8107,-2.8154,-2.8242,-2.8253,-2.8186,-2.8184,-2.8323,-2.8337,-2.8352,-2.8478,-2.8399,-2.8407,-2.8412,-2.87,-2.8704,-2.8707,0,0,0,0,0,0,-2.7879,-2.7902,-2.8102,-2.8014,-2.804,-2.8098,-2.815,-2.8158,-2.8194,-2.8257,-2.8267,-2.8212,-2.8321,-2.8341,-2.8438,-2.8483,-2.8411,-2.8418,-2.8697,-2.8701,-2.8706,-2.8729,0,0,0,0,0,0,-2.7871,-2.79,-2.7939,-2.8015,-2.8044,-2.8186,-2.8153,-2.8163,-2.8208,-2.8206,-2.8284,-2.8294,-2.8321,-2.8426,-2.8447,-2.8493,-2.8425,-2.8693,-2.8699,-2.8704,-2.8724,-2.8734,-2.8741,0,0,0,0,0,-2.7861,-2.7939,-2.7941,-2.7965,-2.8094,-2.8188,-2.8205,-2.8235,-2.8211,-2.8251,-2.8292,-2.8292,-2.8475,-2.8436,-2.8459,-2.8509,-2.869,-2.8697,-2.8704,-2.8721,-2.8732,-2.8741,0,0,0,0,0,0,-2.7867,-2.795,-2.7952,-2.8057,-2.8116,-2.8189,-2.824,-2.8245,-2.8312,-2.8307,-2.8341,-2.8358,-2.8455,-2.8492,-2.8447,-2.8612,-2.858,-2.8592,-2.8585,-2.8596,-2.8604,-2.8594,-2.8432,0,0,0,0,0,-2.788,-2.795,-2.8018,-2.8105,-2.8134,-2.8182,-2.8224,-2.8242,-2.8304,-2.8328,-2.8376,-2.8436,-2.8508,-2.8554,-2.8623,-2.873,-2.8747,-2.8775,-2.8784,-2.879,-2.88,-2.886,-2.8874,-2.8729,-2.8729,-2.8729,0,0,-2.7909,-2.7963,-2.8005,-2.8107,-2.8154,-2.8226,-2.8203,-2.8279,-2.8332,-2.834,-2.8435,-2.8473,-2.8542,-2.8645,-2.8693,-2.8678,-2.8844,-2.8799,-2.8804,-2.881,-2.8869,-2.8882,-2.8894,-2.8733,-2.8733,-2.8732,0,0,-2.7998,-2.8045,-2.8123,-2.8171,-2.8243,-2.8275,-2.8293,-2.8366,-2.8392,-2.8488,-2.8495,-2.8559,-2.8681,-2.873,-2.8771,-2.888,-2.8882,-2.8901,-2.8945,-2.9004,-2.9015,-2.9026,-2.9065,-2.9078,-2.891,-2.891,-2.8911,0,-2.8024,-2.8132,-2.8162,-2.8238,-2.8283,-2.8294,-2.8373,-2.8418,-2.8509,-2.854,-2.8522,-2.8676,-2.8723,-2.8839,-2.8865,-2.8898,-2.892,-2.8892,-2.9011,-2.9022,-2.9032,-2.907,-2.9084,-2.8912,-2.8912,-2.8912,-2.8912,0,-2.8161,-2.8236,-2.8289,-2.8377,-2.8429,-2.8506,-2.8548,-2.8596,-2.861,-2.8643,-2.8742,-2.8799,-2.888,-2.8909,-2.8922,-2.9026,-2.9015,-2.9004,-2.8972,-2.9047,-2.9083,-2.9098,-2.8915,-2.8914,-2.8914,-2.8913,0,0,-2.8257,-2.8361,-2.838,-2.8421,-2.8501,-2.856,-2.8638,-2.8717,-2.8759,-2.8821,-2.8888,-2.8991,-2.8982,-2.9028,-2.9047,-2.9099,-2.9182,-2.9082,-2.9084,-2.9099,-2.9301,-2.9309,-2.9325,-2.9184,-2.9186,-2.9189,-2.9295,0,-2.8355,-2.8494,-2.8524,-2.8644,-2.8713,-2.8725,-2.8793,-2.885,-2.8884,-2.8948,-2.8985,-2.9058,-2.904,-2.9068,-2.9119,-2.9161,-2.9223,-2.9153,-2.9246,-2.9249,-2.9229,-2.9344,-2.9353,-2.945,-2.9309,-2.9312,-2.9314,0,-2.8488,-2.8554,-2.8681,-2.8753,-2.8784,-2.8844,-2.892,-2.8981,-2.9046,-2.9067,-2.912,-2.9134,-2.9216,-2.918,-2.9294,-2.9246,-2.9286,-2.9312,-2.9317,-2.9327,-2.9286,-2.9358,-2.9482,-2.9497,-2.9336,-2.9334,-2.9333,0,-2.8546,-2.8667,-2.8759,-2.8793,-2.8879,-2.8922,-2.896,-2.9022,-2.9069,-2.9135,-2.9165,-2.924,-2.9281,-2.9339,-2.9373,-2.9344,-2.9485,-2.9452,-2.9505,-2.9504,-2.9534,-2.9532,-2.9667,-2.9559,-2.9559,-2.9559,-2.9558,0,-2.8652,-2.873,-2.8786,-2.8842,-2.893,-2.8963,-2.9049,-2.9087,-2.9143,-2.9207,-2.9221,-2.9282,-2.9323,-2.9389,-2.9416,-2.9507,-2.9525,-2.9545,-2.9551,-2.9544,-2.9542,-2.9571,-2.9565,-2.9563,-2.9562,-2.9561,-2.956,0,-2.8732,-2.8773,-2.8874,-2.8947,-2.8968,-2.9029,-2.9092,-2.9148,-2.9182,-2.9264,-2.9285,-2.9338,-2.9417,-2.9457,-2.9555,-2.9573,-2.9676,-2.9678,-2.9654,-2.9656,-2.9708,-2.9703,-2.9867,-2.9891,-2.9766,-2.9767,-2.9768,0,-2.8798,-2.8858,-2.8938,-2.8982,-2.9021,-2.9092,-2.914,-2.9175,-2.9224,-2.9303,-2.935,-2.9429,-2.9495,-2.962,-2.9668,-2.9743,-2.9747,-2.98,-2.9759,-2.975,-2.9749,-2.9745,-2.9752,-2.9807,-2.9808,-2.9809,-2.981,0,-2.891,-2.8927,-2.8995,-2.907,-2.9127,-2.9188,-2.9248,-2.9283,-2.9328,-2.9383,-2.9463,-2.9514,-2.9615,-2.9694,-2.9773,-2.9812,-2.9819,-2.9823,-2.9839,-2.9832,-2.9817,-2.9827,-2.9674,-2.9819,-2.9818,-2.9817,-2.9817,-2.9816,-2.8985,-2.904,-2.9105,-2.918,-2.9229,-2.9285,-2.9341,-2.9383,-2.9451,-2.9535,-2.9552,-2.9638,-2.9702,-2.9809,-2.9851,-2.9919,-2.9908,-2.9931,-2.9938,-2.9943,-2.9946,-2.9805,-2.9933,-2.9933,-2.9933,-2.9933,-2.9933,0,-2.9099,-2.9142,-2.9211,-2.9294,-2.9354,-2.9355,-2.9422,-2.9472,-2.9547,-2.9607,-2.9671,-2.9764,-2.9841,-2.9895,-2.9974,-3.0018,-3.0023,-3.0037,-3.0035,-3.0044,-2.9951,-2.9929,-3.0032,-3.0032,-3.0032,-3.0032,-3.0032,-3.0032,-2.9165,-2.9257,-2.9282,-2.9399,-2.9441,-2.9526,-2.9564,-2.9616,-2.9664,-2.9767,-2.9831,-2.9866,-2.9924,-3.0007,-3.0078,-3.0092,-3.012,-3.0135,-3.0149,-3.0061,-3.005,-3.004,-3.002,-3.014,-3.014,-3.0236,-3.0237,-3.0238]}]]